Skip Page Navigation
NASA JPL Caltech
NASA Logo - Jet Propulsion Laboratory + View the NASA Portal
+ Near-Earth Object (NEO) Program
Search JPL
JPL Home Earth Solar System Stars & Galaxies Technology
JPL Solar System Dynamics
BODIES ORBITS EPHEMERIDES TOOLS PHYSICAL DATA DISCOVERY FAQ SITE MAP
JPL Small-Body Database Browser
Search: [ help ]  
129099 Spoelhof (2004 XU3)
Classification: Main-belt Asteroid          SPK-ID: 2129099
Ephemeris | Orbit Diagram | Orbital Elements | Physical Parameters | Discovery Circumstances | Close-Approach Data ]

[ hide orbit diagram ]
Orbit Diagram
Note: Make sure you have Java enabled on your browser to see the applet. This applet is provided as a 3D orbit visualization tool. The applet was implemented using 2-body methods, and hence should not be used for determining accurate long-term trajectories (over several years or decades) or planetary encounter circumstances. For accurate long-term ephemerides, please instead use our Horizons system.

Note: If the applet has stopped working because of a recent Java upgrade, here is a possible workaround.
Orbit Viewer

Additional Notes: the orbits shown in the applet are color coded. The planets are white lines, and the asteroid/comet is a blue line. The bright white line indicates the portion of the orbit that is above the ecliptic plane, and the darker portion is below the ecliptic plane. Likewise for the asteroid/comet orbit, the light blue indicates the portion above the ecliptic plane, and the dark blue the portion below the ecliptic plane.

Orbit Viewer applet originally written and kindly provided by Osamu Ajiki (AstroArts), and further modified by Ron Baalke (JPL).


Orbital Elements at Epoch 2457000.5 (2014-Dec-09.0) TDB
Reference: JPL 7 (heliocentric ecliptic J2000)
 Element Value Uncertainty (1-sigma)   Units 
e .1789322984174775 9.9983e-08  
a 3.078835780123033 6.7619e-08 AU
q 2.527932617535652 3.0567e-07 AU
i 7.493507619534638 1.1171e-05 deg
node 154.4412223776717 6.3644e-05 deg
peri 16.81656150131398 6.9632e-05 deg
M 224.7781353502265 3.3905e-05 deg
tp 2457741.678194651969
(2016-Dec-19.17819465)
0.00020361 JED
period 1973.232293207811
5.40
6.5006e-05
1.78e-07
d
yr
n .1824417739559498 6.0103e-09 deg/d
Q 3.629738942710415 7.9718e-08 AU
  Orbit Determination Parameters
   # obs. used (total)      301  
   data-arc span      4873 days (13.34 yr)  
   first obs. used      2001-04-24  
   last obs. used      2014-08-27  
   planetary ephem.      DE431  
   SB-pert. ephem.      SB431-BIG16  
   condition code      0  
   fit RMS      .4982  
   data source      ORB  
   producer      Otto Matic  
   solution date      2014-Sep-12 16:12:06  

Additional Information
 Earth MOID = 1.53612 AU 
 T_jup = 3.191 
[ show covariance matrix ]

Ephemeris | Orbit Diagram | Orbital Elements | Physical Parameters | Discovery Circumstances | Close-Approach Data ]

Physical Parameter Table
Parameter Symbol Value Units Sigma Reference Notes
absolute magnitude H 15.2 mag n/a MPO270642  

129099 Spoelhof           Discovered 2004 Dec. 3 by L. Molnar at the Calvin-Rehoboth Observatory.
William Spoelhof (b. 1909) served as president of Calvin College from 1951 to 1976. Among his achievements at this Christian liberal arts college, he fostered the establishment of an astronomy program. This included the construction of an observatory in 1970.
NOTE: some special characters may not display properly (any characters within {} are an attempt to place the proper accent above a character)
Reference: 20060613/MPCPages.arcLast Updated: 2008-05-22

[ show close-approach data ]
Ephemeris | Orbit Diagram | Orbital Elements | Physical Parameters | Discovery Circumstances | Close-Approach Data ]
ABOUT SSD CREDITS/AWARDS PRIVACY/COPYRIGHT GLOSSARY LINKS
FirstGov 2014-Sep-23 22:26 UT
(server date/time)  
NASA Home Page
Site Manager:   Donald K. Yeomans
Webmaster  Alan B. Chamberlin